Moore, Oklahoma, United States
Lat: 35.34N, Lon: 97.49W
Wx Zone: OKZ029
Local Info
Past Weather Observations for Sunday, November 23, 2014

NOTE: This archive is for the closest National Weather Service station to Moore. Information may differ from the station used for current weather conditions.

Click here for Long-term Archive

Time Weather Temperature Dewpoint Humidity Pressure Winds Precip Visibility
23:52
Partly Cloudy
41°F / 5°C 34°F / 1°C 76% 29.77 in
(1008 mb)
WNW 6.9 mph
(WNW 11 kph)
- 10SM
22:52
Partly Cloudy
43°F / 6°C 36°F / 2°C 76% 29.77 in
(1008 mb)
W 8.1 mph
(W 13 kph)
- 10SM
21:52
Mostly Cloudy
45°F / 7°C 36°F / 2°C 71% 29.71 in
(1006 mb)
NW 13.8 mph
(NW 22 kph)
- 10SM
20:52
Mostly Cloudy
45°F / 7°C 37°F / 3°C 76% 29.68 in
(1005 mb)
NW 15 mph
(NW 24 kph)
0.00 in
(0.00 mm)
10SM
20:07
Overcast
45°F / 7°C 37°F / 3°C 76% 29.68 in
(1005 mb)
N 24.2 mph
(N 39 kph)
0.00 in
(0.00 mm)
10SM
19:52
Overcast
Light Rain
45°F / 7°C 37°F / 3°C 76% 29.68 in
(1005 mb)
NNW 25.3 mph
(NNW 41 kph)
0.01 in
(0.25 mm)
10SM
19:45
Overcast
Light Rain
45°F / 7°C 37°F / 3°C 76% 29.68 in
(1005 mb)
NNW 28.8 mph
(NNW 46 kph)
0.01 in
(0.25 mm)
10SM
18:52
Overcast
Light Rain
46°F / 8°C 41°F / 5°C 82% 29.65 in
(1004 mb)
NNW 27.6 mph
(NNW 44 kph)
0.02 in
(0.51 mm)
9SM
17:52
Overcast
Light Rain
46°F / 8°C 39°F / 4°C 76% 29.59 in
(1002 mb)
NNW 29.9 mph
(NNW 48 kph)
0.00 in
(0.00 mm)
10SM
16:52
Overcast
52°F / 11°C 39°F / 4°C 62% 29.5 in
(999 mb)
NNW 29.9 mph
(NNW 48 kph)
- 10SM
16:17
Overcast
54°F / 12°C 41°F / 5°C 63% 29.47 in
(998 mb)
NNW 28.8 mph
(NNW 46 kph)
- 10SM
15:52
Overcast
54°F / 12°C 43°F / 6°C 67% 29.44 in
(997 mb)
NNW 28.8 mph
(NNW 46 kph)
- 10SM
14:52
Overcast
63°F / 17°C 43°F / 6°C 49% 29.39 in
(995 mb)
NW 16.1 mph
(NW 26 kph)
- 10SM
13:52
Mostly Cloudy
61°F / 16°C 45°F / 7°C 55% 29.36 in
(994 mb)
NNW 16.1 mph
(NNW 26 kph)
- 10SM
13:31
Mostly Cloudy
63°F / 17°C 46°F / 8°C 56% 29.36 in
(994 mb)
NW 17.3 mph
(NW 28 kph)
- 10SM
13:03
Mostly Cloudy
63°F / 17°C 48°F / 9°C 59% 29.36 in
(994 mb)
NW 10.4 mph
(NW 17 kph)
- 10SM
12:52
Mostly Cloudy
63°F / 17°C 48°F / 9°C 59% 29.36 in
(994 mb)
W 10.4 mph
(W 17 kph)
- 10SM
12:20
Partly Cloudy
61°F / 16°C 48°F / 9°C 63% 29.36 in
(994 mb)
SSW 8.1 mph
(SSW 13 kph)
- 10SM
11:52
Mostly Cloudy
59°F / 15°C 48°F / 9°C 68% 29.39 in
(995 mb)
SSW 13.8 mph
(SSW 22 kph)
- 10SM
10:52
Mostly Cloudy
57°F / 14°C 48°F / 9°C 72% 29.39 in
(995 mb)
SSE 15 mph
(SSE 24 kph)
- 10SM
10:12
Mostly Cloudy
57°F / 14°C 48°F / 9°C 72% 29.39 in
(995 mb)
S 15 mph
(S 24 kph)
- 10SM
09:52
Mostly Cloudy
57°F / 14°C 52°F / 11°C 82% 29.42 in
(996 mb)
S 18.4 mph
(S 30 kph)
- 10SM
09:36
Overcast
57°F / 14°C 52°F / 11°C 82% 29.42 in
(996 mb)
S 16.1 mph
(S 26 kph)
- 10SM
09:22
Overcast
55°F / 13°C 52°F / 11°C 88% 29.44 in
(997 mb)
S 18.4 mph
(S 30 kph)
- 10SM
08:52
Overcast
55°F / 13°C 52°F / 11°C 88% 29.42 in
(996 mb)
S 18.4 mph
(S 30 kph)
- 10SM
07:52
Mostly Cloudy
54°F / 12°C 52°F / 11°C 94% 29.44 in
(997 mb)
SSE 13.8 mph
(SSE 22 kph)
- 9SM
06:52
Overcast
55°F / 13°C 52°F / 11°C 88% 29.47 in
(998 mb)
S 12.7 mph
(S 20 kph)
- 10SM
05:52
Overcast
55°F / 13°C 52°F / 11°C 88% 29.5 in
(999 mb)
S 19.6 mph
(S 32 kph)
- 10SM
05:30
Overcast
55°F / 13°C 52°F / 11°C 88% 29.5 in
(999 mb)
S 17.3 mph
(S 28 kph)
- 10SM
04:52
Overcast
55°F / 13°C 52°F / 11°C 88% 29.5 in
(999 mb)
SSE 18.4 mph
(SSE 30 kph)
- 10SM
03:52
Overcast
55°F / 13°C 52°F / 11°C 88% 29.53 in
(1000 mb)
S 13.8 mph
(S 22 kph)
- 10SM
02:52
Overcast
55°F / 13°C 52°F / 11°C 88% 29.56 in
(1001 mb)
S 11.5 mph
(S 19 kph)
- 9SM
01:52
Overcast
54°F / 12°C 52°F / 11°C 94% 29.56 in
(1001 mb)
S 9.2 mph
(S 15 kph)
- 7SM
01:19
Mostly Cloudy
55°F / 13°C 52°F / 11°C 88% 29.59 in
(1002 mb)
SSE 11.5 mph
(SSE 19 kph)
- 7SM
00:52
Partly Cloudy
55°F / 13°C 52°F / 11°C 88% 29.62 in
(1003 mb)
SSE 10.4 mph
(SSE 17 kph)
- 7SM
Time Weather Temperature Dewpoint Humidity Pressure Winds Precip Visibility


Weather for websites

WeatherForYou.com, LLC is not responsible for any damages or problems caused by this service. Current weather conditions are obtained from the closest station including government and personal stations which may have varying degrees of accuracy. Weather forecasts are derived from the NOAA NDFD. Like all things, this site belongs to Jesus Christ... He just trusts me to maintain it. If you have any questions or comments email webmaster@weatherforyou.com

Copyright © 2014, WeatherForYou.com LLC. All rights reserved.